Overview Statistics Trail Chart Weather Telemetry Raw packets
 

This is the latest recevied weather packets stored in our database for station/object K7KAR-2. If no packets are shown the sender has not sent any weather packets the latest 10 day(s).

<< 102 103 104 105 106 107 108 >>
Time Temp. Humidity Pressure Rain* Wind** Luminosity Snow
1787844268 24.44° C 35% 1018.4 hPa 0 mm - 384 W/m² -
1787843966 23.89° C 36% 1018.2 hPa 0 mm - 457 W/m² -
1787843662 23.33° C 38% 1018 hPa 0 mm - 420 W/m² -
1787843358 22.78° C 38% 1018 hPa 0 mm - 396 W/m² -
1787843054 22.78° C 39% 1018 hPa 0 mm - 366 W/m² -
1787842753 22.22° C 40% 1018.5 hPa 0 mm - 347 W/m² -
1787842449 21.67° C 41% 1018.1 hPa 0 mm - 331 W/m² -
1787842146 21.67° C 41% 1018.5 hPa 0 mm - 306 W/m² -
1787841838 21.67° C 42% 1018.2 hPa 0 mm - 335 W/m² -
1787841535 21.11° C 42% 1018.2 hPa 0 mm - 285 W/m² -
1787841233 21.11° C 44% 1018.1 hPa 0 mm - 285 W/m² -
1787840928 20° C 45% 1018.6 hPa 0 mm - 274 W/m² -
1787840623 19.44° C 48% 1018.4 hPa 0 mm - 277 W/m² -
1787840318 18.89° C 49% 1018.7 hPa 0 mm - 153 W/m² -
1787840013 18.33° C 50% 1018.5 hPa 0 mm - 216 W/m² -
1787839713 17.78° C 51% 1018.6 hPa 0 mm - 186 W/m² -
1787839407 17.78° C 52% 1018.5 hPa 0 mm - 165 W/m² -
1787839107 17.22° C 53% 1018.5 hPa 0 mm - 147 W/m² -
1787838811 17.22° C 54% 1018.7 hPa 0 mm - 82 W/m² -
1787838501 16.67° C 54% 1018.8 hPa 0 mm - 119 W/m² -
1787838200 16.67° C 55% 1018.8 hPa 0 mm - 114 W/m² -
1787837893 16.11° C 56% 1018.6 hPa 0 mm - 107 W/m² -
1787837592 15.56° C 57% 1018.5 hPa 0 mm - 100 W/m² -
1787837287 15.56° C 59% 1018.6 hPa 0 mm - 84 W/m² -
1787836983 15° C 59% 1018.6 hPa 0 mm - 72 W/m² -

* Rain latest hour (hover to see other rain measurements)
** Current wind speed in m/s (hover to see current wind gust speed)